Wetterstats.de || Aktuelle Messwerte || Aktuelle Wetterkarten NEU! || Radar / Satellit NEU! || Wetterarchiv || Langzeitwerte NEU! || Klim. Kenntage || Met. Ereignisse || Agrarwerte || Echtzeitwerte

Monatsübersicht für Januar 2020 Diagramm
 
Wetter Information zur Wetteranzeige
Zeitraffer
Tageslänge (hh:mm)
Höchsttemperatur in °C
Uhrzeit
Tiefsttemperatur in °C
Uhrzeit
Luftfeuchte (max., in %)
Uhrzeit
Luftfeuchte (min., in %)
Uhrzeit
Luftdruck (max., in hPa)
Uhrzeit
Luftdruck (min., in hPa)
Uhrzeit
Luftdruck (Ø, in hPa)
Regenrate (max, mm/h)
Uhrzeit
Niederschlag in mm
Verdunstung in mm
Solar in W/m² (Ø)
Solar in W/m² (max.)
UV-Index (max.)
Sonnenscheindauer (hh:mm)
Windrichtung (Ø)
Windstärke (Ø in km/h)
Windstärke (Ø in bft)
Windböe (max., in km/h)
Uhrzeit
Windböe (max., in bft)
Uhrzeit
Taupunkt (max., in °C)
Uhrzeit
Taupunkt (min., in °C)
Uhrzeit
Windchill (min., in °C)
Uhrzeit
Gewitterindex (max.)
Uhrzeit
Waldbrandindex (max.)
Uhrzeit
Graslandfeuerindex (max.)
Uhrzeit
Staubsturm-Index (max.)
Uhrzeit
01
Kein Zeitraffer vorhanden
07:50
4.3
14:30 Uhr
-0.2
23:50 Uhr

80
22:50 Uhr
67
13:00 Uhr
1033.5
09:40 Uhr

1029.2
22:45 Uhr
1031.7
0,000
00:05 Uhr
0,000
0.660
64
237
13:15 Uhr
0.0
00:05 Uhr

01:25:00
6,1
1
29,0
13:00 Uhr

4
-0.5
11:50 Uhr
-3.7
17:35 Uhr
-4.4
22:40 Uhr
0
00:05 Uhr

00:00 Uhr

00:00 Uhr

00:00 Uhr
02
Kein Zeitraffer vorhanden
07:51
6.8
13:55 Uhr
-2.3
07:15 Uhr

81
02:40 Uhr
41
14:05 Uhr
1029.5
00:05 Uhr

1022.7
19:40 Uhr
1026.0
0,000
00:05 Uhr
0,000
0.711
105
209
13:25 Uhr
0.0
00:05 Uhr

05:20:00
6,1
1
25,7
06:00 Uhr

4
-3.0
15:30 Uhr
-6.0
19:05 Uhr
-8.7
06:00 Uhr
0
00:05 Uhr

00:00 Uhr

00:00 Uhr

00:00 Uhr
03
Kein Zeitraffer vorhanden
07:52
6.7
23:20 Uhr
0.3
00:05 Uhr

86
23:20 Uhr
69
15:35 Uhr
1023.5
00:10 Uhr

1013.1
20:50 Uhr
1017.2
2,400
17:50 Uhr
4,000
0.711
38
98
10:05 Uhr
0.0
00:05 Uhr

00:05:00
9,6
2
32,2
15:55 Uhr

5
4.5
23:20 Uhr
-4.5
00:05 Uhr
-1.7
04:50 Uhr
0
00:05 Uhr

00:00 Uhr

00:00 Uhr

00:00 Uhr
04
Kein Zeitraffer vorhanden
07:53
6.8
00:10 Uhr
1.9
23:25 Uhr

86
00:05 Uhr
73
19:55 Uhr
1023.6
23:45 Uhr

1013.0
14:20 Uhr
1017.9
4,800
14:15 Uhr
5,600
0.711
26
93
10:45 Uhr
0.0
00:05 Uhr

00:00:00
10,7
2
53,1
00:20 Uhr

7
4.6
00:10 Uhr
-2.4
23:25 Uhr
-5.4
13:10 Uhr
0
00:05 Uhr

00:00 Uhr

00:00 Uhr

00:00 Uhr
05
Kein Zeitraffer vorhanden
07:54
3.3
12:55 Uhr
-0.9
08:40 Uhr

80
09:05 Uhr
69
12:30 Uhr
1033.2
12:50 Uhr

1024.0
00:05 Uhr
1030.9
0,000
00:05 Uhr
0,000
0.610
90
221
12:00 Uhr
0.5
11:30 Uhr

02:35:00
5,8
1
27,4
05:30 Uhr

4
-1.6
12:55 Uhr
-4.5
08:40 Uhr
-2.7
08:25 Uhr
0
00:05 Uhr

00:00 Uhr

00:00 Uhr

00:00 Uhr
06
Kein Zeitraffer vorhanden
07:57
5.4
13:45 Uhr
1.4
00:25 Uhr

81
09:30 Uhr
71
22:45 Uhr
1030.9
00:05 Uhr

1021.5
23:35 Uhr
1026.6
0,000
00:05 Uhr
0,000
0.533
60
193
13:25 Uhr
0.0
00:05 Uhr

00:55:00
5,8
1
22,5
12:10 Uhr

4
1.0
14:30 Uhr
-2.4
00:05 Uhr
-0.4
01:30 Uhr
0
00:05 Uhr

00:00 Uhr

00:00 Uhr

00:00 Uhr
07
Kein Zeitraffer vorhanden
07:58
3.7
21:45 Uhr
-1.8
07:00 Uhr

84
20:15 Uhr
71
00:05 Uhr
1027.3
20:05 Uhr

1019.8
03:10 Uhr
1023.7
0,000
00:05 Uhr
0,000
0.406
47
146
10:55 Uhr
0.0
00:05 Uhr

00:10:00
6,5
1
25,7
10:45 Uhr

4
1.3
22:25 Uhr
-5.3
07:00 Uhr
-4.3
11:55 Uhr
0
00:05 Uhr

00:00 Uhr

00:00 Uhr

00:00 Uhr
08
Kein Zeitraffer vorhanden
08:00
7.4
23:00 Uhr
2.4
02:40 Uhr

97
16:45 Uhr
72
05:45 Uhr
1026.4
00:05 Uhr

1020.8
13:35 Uhr
1022.5
2,400
07:40 Uhr
0,800
0.660
31
88
12:40 Uhr
0.0
00:05 Uhr

00:00:00
10,5
2
35,4
05:20 Uhr

5
6.1
21:45 Uhr
-0.6
04:00 Uhr
-3.1
05:15 Uhr
0
00:05 Uhr

00:00 Uhr

00:00 Uhr

00:00 Uhr
09
Kein Zeitraffer vorhanden
08:02
9.4
23:35 Uhr
6.8
04:25 Uhr

100
11:30 Uhr
90
00:05 Uhr
1022.7
00:15 Uhr

1011.2
23:50 Uhr
1016.7
2,400
02:45 Uhr
5,800
0.305
34
86
12:05 Uhr
0.0
00:05 Uhr

00:00:00
8,2
2
32,2
14:40 Uhr

5
9.0
18:05 Uhr
5.7
03:50 Uhr
3.1
13:05 Uhr
2
17:45 Uhr

00:00 Uhr

00:00 Uhr

00:00 Uhr
10
Kein Zeitraffer vorhanden
08:04
10.3
14:10 Uhr
6.2
23:55 Uhr

96
00:05 Uhr
86
14:25 Uhr
1020.6
23:55 Uhr

1010.3
05:05 Uhr
1013.3
2,400
01:20 Uhr
2,800
0.584
59
220
13:10 Uhr
0.0
00:05 Uhr

00:55:00
10,6
2
35,4
13:15 Uhr

5
9.2
02:25 Uhr
4.5
23:45 Uhr
3.6
18:15 Uhr
2
00:20 Uhr

00:00 Uhr

00:00 Uhr

00:00 Uhr
11
Kein Zeitraffer vorhanden
08:06
6.1
00:05 Uhr
2.2
20:45 Uhr

91
06:20 Uhr
80
13:20 Uhr
1030.8
12:25 Uhr

1020.9
00:05 Uhr
1027.6
0,000
00:05 Uhr
0,000
0.508
67
223
13:00 Uhr
0.5
13:00 Uhr

00:35:00
6,3
1
32,2
00:40 Uhr

5
4.4
00:05 Uhr
0.1
23:50 Uhr
-2.6
23:20 Uhr
0
00:05 Uhr

00:00 Uhr

00:00 Uhr

00:00 Uhr
12
Kein Zeitraffer vorhanden
08:08
5.5
13:45 Uhr
0.3
05:45 Uhr

89
03:50 Uhr
77
13:35 Uhr
1026.5
00:05 Uhr

1017.7
17:35 Uhr
1021.0
0,000
00:05 Uhr
0,000
0.711
108
287
12:25 Uhr
0.6
11:55 Uhr

03:15:00
10,3
2
37,0
18:05 Uhr

5
2.0
13:45 Uhr
-1.3
05:45 Uhr
-3.9
18:10 Uhr
0
00:05 Uhr

00:00 Uhr

00:00 Uhr

00:00 Uhr
13
Kein Zeitraffer vorhanden
08:11
6.9
14:25 Uhr
1.7
23:40 Uhr

92
18:00 Uhr
85
13:30 Uhr
1021.0
09:40 Uhr

1015.7
23:50 Uhr
1019.0
0,000
00:05 Uhr
0,000
0.635
91
246
11:50 Uhr
0.5
11:25 Uhr

01:50:00
8,4
2
32,2
00:10 Uhr

5
4.8
14:20 Uhr
0.5
23:55 Uhr
-2.0
00:30 Uhr
0
00:05 Uhr

00:00 Uhr

00:00 Uhr

00:00 Uhr
14
Kein Zeitraffer vorhanden
08:13
9.6
13:25 Uhr
0.8
02:20 Uhr

93
00:35 Uhr
70
12:55 Uhr
1015.8
00:15 Uhr

1010.3
12:45 Uhr
1012.2
0,000
00:05 Uhr
0,000
0.940
78
209
12:25 Uhr
0.5
11:40 Uhr

00:40:00
10,9
2
40,2
13:20 Uhr

5
4.6
13:30 Uhr
-0.2
02:20 Uhr
-3.3
07:25 Uhr
0
00:05 Uhr

00:00 Uhr

00:00 Uhr

00:00 Uhr
15
Kein Zeitraffer vorhanden
08:15
13.1
13:30 Uhr
5.3
22:55 Uhr

76
02:00 Uhr
46
14:15 Uhr
1019.2
23:50 Uhr

1012.0
00:05 Uhr
1014.8
0,000
00:05 Uhr
0,000
1.626
103
306
12:45 Uhr
0.6
12:30 Uhr

03:05:00
11,3
2
35,4
00:20 Uhr

5
5.6
12:45 Uhr
-1.9
17:50 Uhr
0.3
20:55 Uhr
0
00:05 Uhr

00:00 Uhr

00:00 Uhr

00:00 Uhr


 
Wetter Information zur Wetteranzeige
Zeitraffer
Tageslänge (hh:mm)
Höchsttemperatur in °C
Uhrzeit
Tiefsttemperatur in °C
Uhrzeit
Luftfeuchte (max., in %)
Uhrzeit
Luftfeuchte (min., in %)
Uhrzeit
Luftdruck (max., in hPa)
Uhrzeit
Luftdruck (min., in hPa)
Uhrzeit
Luftdruck (Ø, in hPa)
Regenrate (max, mm/h)
Uhrzeit
Niederschlag in mm
Verdunstung in mm
Solar in W/m² (Ø)
Solar in W/m² (max.)
UV-Index (max.)
Sonnenscheindauer (hh:mm)
Windrichtung (Ø)
Windstärke (Ø in km/h)
Windstärke (Ø in bft)
Windböe (max., in km/h)
Uhrzeit
Windböe (max., in bft)
Uhrzeit
Taupunkt (max., in °C)
Uhrzeit
Taupunkt (min., in °C)
Uhrzeit
Windchill (min., in °C)
Uhrzeit
Gewitterindex (max.)
Uhrzeit
Waldbrandindex (max.)
Uhrzeit
Graslandfeuerindex (max.)
Uhrzeit
Staubsturm-Index (max.)
Uhrzeit
16
Kein Zeitraffer vorhanden
08:17
10.7
13:50 Uhr
2.8
23:05 Uhr

82
07:00 Uhr
57
14:35 Uhr
1028.9
12:50 Uhr

1019.3
00:05 Uhr
1026.4
0,000
00:05 Uhr
0,000
1.168
126
246
12:30 Uhr
0.6
11:30 Uhr

05:05:00
7,0
1
25,7
00:10 Uhr

4
3.5
11:35 Uhr
-0.8
00:05 Uhr
-0.6
21:50 Uhr
0
00:05 Uhr

00:00 Uhr

00:00 Uhr

00:00 Uhr
17
Kein Zeitraffer vorhanden
08:20
7.3
13:30 Uhr
0.9
08:30 Uhr

90
08:40 Uhr
72
13:45 Uhr
1027.3
00:05 Uhr

1015.1
20:20 Uhr
1019.7
0,000
00:05 Uhr
0,000
0.915
122
232
12:20 Uhr
0.6
11:45 Uhr

05:00:00
8,5
2
27,4
23:20 Uhr

4
2.8
13:30 Uhr
-0.7
02:05 Uhr
-3.2
10:40 Uhr
0
00:05 Uhr

00:00 Uhr

00:00 Uhr

00:00 Uhr
18
Kein Zeitraffer vorhanden
08:23
6.4
12:35 Uhr
1.6
23:30 Uhr

93
05:50 Uhr
72
12:40 Uhr
1024.4
23:20 Uhr

1015.8
00:05 Uhr
1021.2
2,400
02:45 Uhr
0,400
0.686
81
188
11:50 Uhr
0.5
12:10 Uhr

00:55:00
7,0
1
30,6
12:25 Uhr

5
3.9
04:25 Uhr
-0.8
23:30 Uhr
-0.4
00:05 Uhr
0
00:05 Uhr

00:00 Uhr

00:00 Uhr

00:00 Uhr
19
Kein Zeitraffer vorhanden
08:25
4.9
12:40 Uhr
0.5
06:30 Uhr

92
06:50 Uhr
79
23:40 Uhr
1041.1
23:30 Uhr

1024.5
00:05 Uhr
1032.4
0,000
00:05 Uhr
0,000
0.330
68
151
11:55 Uhr
0.5
12:00 Uhr

00:00:00
3,8
1
16,1
00:45 Uhr

3
2.1
12:10 Uhr
-1.3
02:10 Uhr
-0.2
02:35 Uhr
0
00:05 Uhr

00:00 Uhr

00:00 Uhr

00:00 Uhr
20
Kein Zeitraffer vorhanden
08:28
6.3
13:10 Uhr
0.7
23:15 Uhr

92
23:40 Uhr
67
13:50 Uhr
1045.5
11:05 Uhr

1041.2
00:05 Uhr
1043.9
0,000
00:05 Uhr
0,000
0.737
133
255
12:10 Uhr
0.6
11:15 Uhr

05:45:00
5,2
1
25,7
17:00 Uhr

4
1.7
12:55 Uhr
-0.9
17:05 Uhr
-2.9
23:25 Uhr
0
00:05 Uhr

00:00 Uhr

00:00 Uhr

00:00 Uhr
21
Kein Zeitraffer vorhanden
08:32
6.4
14:25 Uhr
-0.9
07:05 Uhr

93
00:15 Uhr
63
14:15 Uhr
1043.4
00:05 Uhr

1033.4
23:50 Uhr
1038.3
0,000
00:05 Uhr
0,000
0.991
136
258
12:20 Uhr
0.7
11:45 Uhr

05:30:00
9,4
2
32,2
13:50 Uhr

5
0.5
12:00 Uhr
-2.8
06:50 Uhr
-5.7
07:20 Uhr
0
00:05 Uhr

00:00 Uhr

00:00 Uhr

00:00 Uhr
22
Kein Zeitraffer vorhanden
08:34
5.5
16:35 Uhr
1.8
00:05 Uhr

94
11:20 Uhr
79
16:25 Uhr
1033.8
23:55 Uhr

1028.3
13:00 Uhr
1030.5
0,000
00:05 Uhr
0,000
0.432
33
95
12:10 Uhr
0.0
00:05 Uhr

00:00:00
6,9
1
33,8
03:40 Uhr

5
3.6
12:40 Uhr
-1.1
00:05 Uhr
-4.9
02:50 Uhr
0
00:05 Uhr

00:00 Uhr

00:00 Uhr

00:00 Uhr
23
Kein Zeitraffer vorhanden
08:37
6.1
13:20 Uhr
0.3
03:15 Uhr

89
03:35 Uhr
71
13:25 Uhr
1034.0
00:25 Uhr

1026.4
23:55 Uhr
1031.3
0,000
00:05 Uhr
0,000
0.457
77
309
13:15 Uhr
0.6
13:00 Uhr

00:20:00
4,4
1
24,1
13:25 Uhr

4
1.8
12:20 Uhr
-2.2
23:40 Uhr
0.3
03:15 Uhr
0
00:05 Uhr

00:00 Uhr

00:00 Uhr

00:00 Uhr
24
Kein Zeitraffer vorhanden
08:40
2.9
14:25 Uhr
-2.8
07:00 Uhr

87
07:20 Uhr
75
13:20 Uhr
1026.4
00:05 Uhr

1019.3
15:20 Uhr
1022.0
0,000
00:05 Uhr
0,000
0.660
137
262
12:25 Uhr
0.7
11:45 Uhr

05:40:00
6,0
1
24,1
10:20 Uhr

4
-0.9
14:25 Uhr
-4.8
07:00 Uhr
-5.1
10:30 Uhr
0
00:05 Uhr

00:00 Uhr

00:00 Uhr

00:00 Uhr
25
Kein Zeitraffer vorhanden
08:44
0.7
12:55 Uhr
-0.7
01:45 Uhr

95
06:55 Uhr
86
00:05 Uhr
1021.6
10:40 Uhr

1019.9
06:05 Uhr
1020.8
0,000
00:05 Uhr
0,000
0.254
62
144
11:50 Uhr
0.5
11:40 Uhr

00:00:00
8,5
2
30,6
10:00 Uhr

5
-0.3
14:25 Uhr
-2.3
00:05 Uhr
-7.1
10:40 Uhr
0
00:05 Uhr

00:00 Uhr

00:00 Uhr

00:00 Uhr
26
Kein Zeitraffer vorhanden
08:46
0.0
23:55 Uhr
-1.7
05:35 Uhr

95
10:50 Uhr
94
00:05 Uhr
1021.0
00:05 Uhr

1015.6
23:50 Uhr
1018.6
0,000
00:05 Uhr
0,000
0.127
32
56
11:30 Uhr
0.0
00:05 Uhr

00:00:00
4,4
1
16,1
06:50 Uhr

3
-0.7
23:55 Uhr
-2.6
06:10 Uhr
-3.5
08:15 Uhr
0
00:05 Uhr

00:00 Uhr

00:00 Uhr

00:00 Uhr
27
Kein Zeitraffer vorhanden
08:49
9.8
14:05 Uhr
-0.2
06:05 Uhr

96
08:00 Uhr
78
14:00 Uhr
1015.6
00:05 Uhr

1002.5
23:55 Uhr
1010.3
2,400
22:10 Uhr
0,400
0.737
118
279
13:25 Uhr
0.6
10:50 Uhr

03:20:00
7,0
1
33,8
13:20 Uhr

5
6.3
13:15 Uhr
-0.9
06:05 Uhr
-0.8
00:35 Uhr
0
00:05 Uhr

00:00 Uhr

00:00 Uhr

00:00 Uhr
28
Kein Zeitraffer vorhanden
08:53
8.7
13:00 Uhr
3.5
18:00 Uhr

93
09:55 Uhr
79
23:55 Uhr
1002.3
00:05 Uhr

989.0
15:25 Uhr
994.0
4,800
15:40 Uhr
8,000
0.889
102
327
12:05 Uhr
0.7
11:55 Uhr

01:45:00
12,8
2
57,9
22:00 Uhr

7
6.1
12:50 Uhr
0.5
23:55 Uhr
-5.9
23:55 Uhr
0
00:05 Uhr

00:00 Uhr

00:00 Uhr

00:00 Uhr
29
Kein Zeitraffer vorhanden
08:56
5.8
12:55 Uhr
1.9
01:30 Uhr

90
01:25 Uhr
74
15:05 Uhr
1007.6
23:40 Uhr

994.2
00:05 Uhr
999.6
2,400
00:45 Uhr
2,000
1.016
67
301
12:45 Uhr
0.6
12:30 Uhr

00:20:00
16,5
3
54,7
00:15 Uhr

7
2.3
12:50 Uhr
0.4
01:20 Uhr
-7.3
00:15 Uhr
0
00:05 Uhr

00:00 Uhr

00:00 Uhr

00:00 Uhr
30
Kein Zeitraffer vorhanden
09:00
7.7
15:10 Uhr
2.6
04:55 Uhr

92
08:40 Uhr
81
15:15 Uhr
1009.2
03:10 Uhr

998.8
23:55 Uhr
1005.7
2,400
06:55 Uhr
4,200
0.838
64
172
13:05 Uhr
0.6
12:35 Uhr

00:00:00
12,9
2
45,1
14:05 Uhr

6
4.8
15:10 Uhr
0.3
04:55 Uhr
-4.0
06:30 Uhr
0
00:05 Uhr

00:00 Uhr

00:00 Uhr

00:00 Uhr
31
Kein Zeitraffer vorhanden
09:03
11.2
13:45 Uhr
5.5
00:45 Uhr

94
03:50 Uhr
71
13:20 Uhr
1005.8
19:40 Uhr

995.5
03:50 Uhr
1001.8
4,800
00:05 Uhr
1,600
0.940
93
302
13:05 Uhr
0.9
12:55 Uhr

00:50:00
10,3
2
46,7
09:05 Uhr

6
8.0
06:20 Uhr
3.7
00:05 Uhr
-1.5
04:05 Uhr
0
00:05 Uhr

00:00 Uhr

00:00 Uhr

00:00 Uhr
Stationsstandorte || Wetterblog || Wissenswertes || Downloads || Seitenhistorie || Partner || Impressum / Datenschutz